Regional Weather Roundup
Issued by NWS

Home | Current Version | Previous Version | Text Only | Print | Product List | Glossary On
Versions: 1 2 3 4 5 6 7 8 9 10 11 12 13 14 15 16 17 18 19 20 21 22 23 24 25 26 27 28 29 30 31 32 33 34 35 36 37 38 39 40 41 42 43 44 45 46 47 48 49 50
000
ASUS44 KFWD 200210
RWRTX
NORTH TEXAS HOURLY WEATHER ROUNDUP
NATIONAL WEATHER SERVICE FORT WORTH TX
900 PM CDT TUE SEP 19 2017

NOTE: "FAIR" INDICATES FEW OR NO CLOUDS BELOW 12,000 FEET WITH NO
SIGNIFICANT WEATHER AND/OR OBSTRUCTIONS TO VISIBILITY.

TXZ118-119-200300-
DALLAS/FORT WORTH METROPLEX

CITY           SKY/WX    TMP DP  RH WIND       PRES   REMARKS
DFW AIRPORT    MOCLDY    90  69  50 S13       29.81R HX  94
DALLAS LOVE    CLOUDY    90  68  48 S12       29.81R HX  94
FTW MEACHAM    PTCLDY    89  70  53 S9        29.82R HX  94
DAL-EXECUTIVE  MOCLDY    89  69  51 S7        29.82R HX  93
FTW-ALLIANCE   MOCLDY    88  68  51 S8        29.82R HX  91
FTW-NAS-JRB    MOCLDY    89  67  47 S9        29.83R HX  92
FTW-SPINKS     CLOUDY    87  68  53 S12G20    29.84R HX  90
ARLINGTON      CLOUDY    89  71  55 S13G22    29.82R HX  95
GRAND PRAIRIE  CLEAR     88  66  48 SE6       29.82R HX  90
MESQUITE       CLOUDY    85  69  57 SE8       29.83R
LANCASTER      CLOUDY    87  69  55 S9        29.83R HX  91
$$

TXZ091>094-102>105-117-120-121-131>134-200300-
NORTH CENTRAL TEXAS

CITY           SKY/WX    TMP DP  RH WIND       PRES   REMARKS
SHRMAN/DENISON CLOUDY    85  69  57 SE8       29.83R
GAINESVILLE    LGT RAIN  83  66  55 W14G20    29.89R
BOWIE          LGT RAIN  71  64  79 E21G36    29.80F
BRIDGEPORT     TSTM      74  64  69 SW16G26   29.90R
DECATUR        CLOUDY    76  66  72 CALM      29.88R
DENTON         CLOUDY    87  69  54 SW7       29.84R HX  91
MCKINNEY       CLOUDY    87  71  58 S13       29.81R HX  93
BONHAM         CLOUDY    82  70  65 SE12      29.83R
GREENVILLE     CLEAR     86  72  62 SE7       29.84R HX  92
ROCKWALL       MOCLDY    86  70  58 S6        29.82S HX  90
TERRELL        PTCLDY    86  70  58 SE9       29.83R HX  90
WAXAHACHIE     CLOUDY    86  70  57 S10       29.84R HX  91
CLEBURNE       CLOUDY    86  72  62 S9        29.85R HX  92
GRANBURY       PTCLDY    88  69  52 SE7       29.83R HX  92
$$

TXZ083>090-098>101-113>116-127>130-139>142-154-155-200300-
WESTERN NORTH TEXAS

CITY           SKY/WX    TMP DP  RH WIND       PRES   REMARKS
WICHITA FALLS  CLOUDY    73  62  68 S20       29.77R
WF-KICKAPOO    CLOUDY    74  63  68 SE20G25   29.80R
VERNON         PTCLDY    78  59  52 SE24      29.73R
ABILENE        CLEAR     76  61  59 S13       29.81S
ABILENE-DYESS  PTCLDY    78  62  56 S16       29.79S
GRAHAM         MOCLDY    73  64  71 E14G21    29.82R
BRECKENRIDGE   CLEAR     82  62  50 S15G21    29.80R
CISCO          CLEAR     75  66  73 S16       29.83S
EASTLAND       CLEAR     78  64  63 S7        29.82R
RANGER         CLEAR     79  62  55 S7        29.83R
MINERAL WELLS  CLOUDY    79  66  64 N18G26    29.85R
STEPHENVILLE   PTCLDY    82  67  60 CALM      29.86R
COMANCHE       MOCLDY    77  65  66 E5        29.83R
BROWNWOOD      PTCLDY    73  64  73 E3        29.81F
COLEMAN        CLEAR     73  65  78 SW7       29.84R
$$

TXZ143>147-156>162-174-175-200300-
CENTRAL TEXAS

CITY           SKY/WX    TMP DP  RH WIND       PRES   REMARKS
WACO           CLOUDY    87  69  54 S9        29.82R HX  91
WACO-TSTC      CLEAR     86  68  54 S7        29.82R
WACO-MCGREGOR  CLOUDY    86  71  60 SE9G18    29.83R HX  91
HILLSBORO      CLOUDY    87  71  58 SE14      29.84R HX  92
CORSICANA      MOCLDY    83  71  67 SE7       29.85R
MEXIA          CLOUDY    83  70  65 SE7       29.84R
HEARNE         CLOUDY    83  73  72 SE6       29.86R
CAMERON        CLOUDY    83  73  69 S8        29.84R
TEMPLE         CLOUDY    85  72  65 SE24G32   29.80F HX  91
KILLEEN        CLOUDY    84  71  65 S15       29.80F
FORT HOOD      CLOUDY    84  70  63 S17G26    29.77F
GATESVILLE     MOCLDY    84  72  65 SE10      29.83R
HAMILTON       CLOUDY    82  70  65 SW6       29.85R
LAMPASAS       PTCLDY    82  74  77 S13       29.82S
$$

TXZ095>097-106>112-122>126-135>138-148>153-164>167-200300-
EAST TEXAS

CITY           SKY/WX    TMP DP  RH WIND       PRES   REMARKS
PARIS          CLEAR     80  72  76 SE8       29.85R
SULPHUR SPRNGS CLEAR     84  72  66 SE7       29.86S
MOUNT PLEASANT CLEAR     78  72  80 SE5       29.87R
GILMER         CLEAR     82  73  73 SE5       29.87R
MINEOLA        CLEAR     84  73  70 SE6       29.85R HX  91
TYLER          MOCLDY    82  73  74 S7        29.86R
LONGVIEW       CLEAR     82  75  79 S9        29.86R
MARSHALL       CLEAR     77  72  83 S3        29.90R
ATHENS         CLOUDY    81  70  69 SE5       29.84R
PALESTINE      PTCLDY    83  74  74 SE6       29.87R
JACKSONVILLE   CLOUDY    80  74  82 S8        29.91R
HENDERSON      CLEAR     80  74  81 SE5       29.90R
CENTER         PTCLDY    81  77  88 CALM      29.90R
NACOGDOCHES    CLOUDY    79  75  87 S6        29.90R
LUFKIN         MOCLDY    78  74  87 SE6       29.89R
$$

SUPPLEMENTAL OBSERVATIONS (NWS FORT WORTH AREA)

CITY           SKY/WX    TMP DP  RH WIND       PRES   REMARKS
CADDO GRASSLND   N/A     82  70  65 S5          N/A
PAT MAYSE LAKE   N/A     82  73  74 E10         N/A
GREENVILLE       N/A     82  72  69 SE7         N/A
CEDAR HILL       N/A     88  68  51 S9G18       N/A  HX  91
LBJ GRASSLAND    N/A     73  66  78 N9G18       N/A
POSSUM KINGDOM   N/A     77  63  61 E10         N/A
GRANBURY         N/A     88  68  51 SE9         N/A  HX  91
MCGREGOR         N/A     84  68  58 S15G23      N/A
TEMPLE           N/A     84  70  61 S9          N/A
$$

SUPPLEMENTAL OBSERVATIONS (NWS NORMAN AREA)

CITY           SKY/WX    TMP DP  RH WIND       PRES   REMARKS
GOODLETT         N/A     79  64  59 SE17      29.72R
ODELL            N/A     77  64  64 SE20      29.74R
CROWELL          N/A     78  66  65 SE17      29.74R
KNOX CITY        N/A     86  61  42 S25G32    29.75R
SEYMOUR          N/A     78  67  68 SE22      29.78R
MILLERS CREEK    N/A     84  63  48 SE14G26     N/A
$$

SUPPLEMENTAL OBSERVATIONS (NWS SAN ANGELO AREA)

CITY           SKY/WX    TMP DP  RH WIND       PRES   REMARKS
WEINERT          N/A     85  64  48 S20       29.77R
HASKELL          N/A     82  60  46 S14       29.77R
THROCKMORTON     N/A     78  67  69 E14       29.83R
STAMFORD         N/A     81  64  55 S14       29.78F
CLYDE            N/A     73  63  69 S9        29.84S
HAMBY            N/A    N/A N/A N/A S16G23      N/A
IVIE RESERVOIR   N/A     73  64  73 SE13        N/A
COLORADO BEND    N/A     75  70  83 SW6         N/A
$$

SUPPLEMENTAL OBSERVATIONS (NWS SHREVEPORT AREA)

CITY           SKY/WX    TMP DP  RH WIND       PRES   REMARKS
CLARKSVILLE      N/A     81  70  69 SE5         N/A
TEXARKANA        N/A     75  72  88 CALM        N/A
LINDEN           N/A     82  72  69 SE1         N/A
GILMER           N/A     82  73  74 S3          N/A
HENDERSON        N/A     81  75  83 S2          N/A
LUFKIN           N/A     79  75  89 MISG        N/A
N SABINE NF      N/A     77  75  94 MISG        N/A
S SABINE NF      N/A     75  73  94 CALM        N/A
$$

SUPPLEMENTAL OBSERVATIONS ARE A COLLECTION OF AUTOMATED INSTRUMENTS
THAT ARE MAINTAINED BY A VARIETY OF FEDERAL AND STATE AGENCIES.
CERTAIN ELEMENTS...SUCH AS HUMIDITY VALUES AND SUSTAINED WIND
SPEEDS...MAY BE APPROXIMATED.





USA.gov is the U.S. government's official web portal to all federal, state and local government web resources and services.